This is the latest recevied weather packets stored in our database for station/object YC0ACE-13. If no packets are shown the sender has not sent any weather packets the latest 1 day(s).
| Time | Temp. | Humidity | Pressure | Rain* | Wind** | Luminosity | Snow |
|---|---|---|---|---|---|---|---|
| 1778077525 | 29.44° C | 81% | 1014.9 hPa | 0 mm | - | 0 W/m² | - |
| 1778076025 | 29.44° C | 80% | 1014.2 hPa | 0 mm | - | 0 W/m² | - |
| 1778075726 | 29.44° C | 81% | 1014.6 hPa | 0 mm | - | 0 W/m² | - |
| 1778075425 | 29.44° C | 81% | 1014.6 hPa | 0 mm | - | 0 W/m² | - |
| 1778074825 | 29.44° C | 80% | 1014.6 hPa | 0 mm | - | 0 W/m² | - |
| 1778074225 | 29.44° C | 80% | 1014.6 hPa | 0 mm | - | 0 W/m² | - |
| 1778073925 | 29.44° C | 80% | 1014.2 hPa | 0 mm | - | 0 W/m² | - |
| 1778072425 | 29.44° C | 79% | 1014.2 hPa | 0 mm | - | 0 W/m² | - |
| 1778072127 | 29.44° C | 79% | 1014.2 hPa | 0 mm | - | 0 W/m² | - |
| 1778069426 | 30° C | 76% | 1013.5 hPa | 0 mm | - | 0 W/m² | - |
| 1778068225 | 30° C | 75% | 1013.2 hPa | 0 mm | - | 0 W/m² | - |
| 1778067924 | 30° C | 74% | 1013.2 hPa | 0 mm | - | 0 W/m² | - |
| 1778067330 | 30° C | 75% | 1013.2 hPa | 0 mm | - | 0 W/m² | - |
| 1778067025 | 30° C | 75% | 1012.9 hPa | 0 mm | - | 0 W/m² | - |
| 1778064326 | 30.56° C | 75% | 1012.2 hPa | 0 mm | - | 2 W/m² | - |
| 1778063724 | 30.56° C | 75% | 1012.2 hPa | 0 mm | - | 5 W/m² | - |
| 1778063425 | 30.56° C | 75% | 1012.2 hPa | 0 mm | - | 7 W/m² | - |
| 1778063125 | 30.56° C | 75% | 1011.9 hPa | 0 mm | - | 10 W/m² | - |
| 1778061626 | 31.11° C | 73% | 1011.9 hPa | 0 mm | - | 51 W/m² | - |
| 1778061325 | 31.11° C | 73% | 1011.9 hPa | 0 mm | - | 61 W/m² | - |
| 1778060124 | 31.67° C | 71% | 1011.9 hPa | 0 mm | - | 104 W/m² | - |
| 1778059825 | 31.67° C | 71% | 1011.9 hPa | 0 mm | - | 112 W/m² | - |
| 1778059225 | 31.67° C | 70% | 1011.5 hPa | 0 mm | - | 138 W/m² | - |
| 1778058925 | 31.67° C | 70% | 1011.5 hPa | 0 mm | - | 159 W/m² | - |
| 1778058628 | 31.67° C | 69% | 1011.5 hPa | 0 mm | - | 171 W/m² | - |
* Rain latest hour (hover to see other rain measurements)
** Current wind speed in m/s (hover to see current wind gust speed)